ITAMSAT (IO-26)

Last updated on Mon Sep 21 2026 00:03:14 GMT+0000 (Coordinated Universal Time)

1 22826U 93061D 26263.11656110 .00000033 00000+0 29246-4 0 9991 2 22826 98.6736 330.3794 0009321 158.3201 201.8378 14.31391062720890
UTC large
Height (km)
Speed (km/s)
/
Latitude / Longitude
Inclination (degrees)
Orbital Period (minutes)
Azimuth
Elevation
Range (km)
Doppler Factor

Next 0 passes for location: London (51.5072 / 0.1276)

No passes found over London.
ITAMSAT (IO-26)